contact:dominique.lefevre@mio.osupytheas.fr, maurice.libes@osupytheas.fr, didier.mallarino@osupytheas.fr
Project:EMSO http://www.emso-fr.org/EMSO-France
Depth: 2436.0 m
Title:EMSO Ligure Ouest : Data MII capteur MICROCAT
DateTime_Computer,Latitude,Longitude,Temperature,Conductivity,Pressure,DateTime_Instrument
DateTime_Computer,Latitude,Longitude,degC,S m-1,dbar,DateTime_Instrument
2022-05-06T00:00:44Z,42.805,6.029,13.3000,4.60033,2470.156,2022-5-06T02:02:24Z
2022-05-06T00:03:47Z,42.805,6.029,13.2999,4.60033,2470.171,2022-5-06T02:05:27Z
2022-05-06T00:06:50Z,42.805,6.029,13.3000,4.60034,2470.156,2022-5-06T02:08:30Z
2022-05-06T00:09:53Z,42.805,6.029,13.2998,4.60034,2470.156,2022-5-06T02:11:33Z
2022-05-06T00:12:56Z,42.805,6.029,13.3000,4.60035,2470.203,2022-5-06T02:14:37Z
2022-05-06T00:16:00Z,42.805,6.029,13.2996,4.60033,2470.133,2022-5-06T02:17:40Z
2022-05-06T00:19:03Z,42.805,6.029,13.2998,4.60033,2470.156,2022-5-06T02:20:43Z
2022-05-06T00:22:06Z,42.805,6.029,13.2998,4.60035,2470.203,2022-5-06T02:23:46Z
2022-05-06T00:25:09Z,42.805,6.029,13.2997,4.60034,2470.194,2022-5-06T02:26:49Z
2022-05-06T00:28:12Z,42.805,6.029,13.2996,4.60034,2470.133,2022-5-06T02:29:52Z
2022-05-06T00:31:15Z,42.805,6.029,13.2999,4.60033,2470.133,2022-5-06T02:32:55Z
2022-05-06T00:34:18Z,42.805,6.029,13.3003,4.60034,2470.133,2022-5-06T02:35:58Z
2022-05-06T00:37:21Z,42.805,6.029,13.3000,4.60032,2470.11,2022-5-06T02:39:02Z
2022-05-06T00:40:24Z,42.805,6.029,13.2999,4.60033,2470.156,2022-5-06T02:42:05Z
2022-05-06T00:43:28Z,42.805,6.029,13.2998,4.60034,2470.171,2022-5-06T02:45:08Z
2022-05-06T00:46:31Z,42.805,6.029,13.2996,4.60033,2470.124,2022-5-06T02:48:11Z
2022-05-06T00:49:34Z,42.805,6.029,13.2998,4.60033,2470.147,2022-5-06T02:51:14Z
2022-05-06T00:52:37Z,42.805,6.029,13.3003,4.60034,2470.133,2022-5-06T02:54:17Z
2022-05-06T00:55:40Z,42.805,6.029,13.2999,4.60033,2470.124,2022-5-06T02:57:20Z
2022-05-06T00:58:43Z,42.805,6.029,13.2996,4.60033,2470.133,2022-5-06T03:00:23Z
2022-05-06T01:01:46Z,42.805,6.029,13.2997,4.60032,2470.147,2022-5-06T03:03:26Z
2022-05-06T01:04:49Z,42.805,6.029,13.2994,4.60033,2470.11,2022-5-06T03:06:30Z
2022-05-06T01:07:53Z,42.805,6.029,13.2999,4.60033,2470.11,2022-5-06T03:09:33Z
2022-05-06T01:10:56Z,42.805,6.029,13.2996,4.60033,2470.11,2022-5-06T03:12:36Z
2022-05-06T01:13:59Z,42.805,6.029,13.2996,4.60035,2470.11,2022-5-06T03:15:39Z
2022-05-06T01:17:02Z,42.805,6.029,13.2999,4.60033,2470.11,2022-5-06T03:18:42Z
2022-05-06T01:20:05Z,42.805,6.029,13.2998,4.60034,2470.124,2022-5-06T03:21:45Z
2022-05-06T01:23:08Z,42.805,6.029,13.2998,4.60033,2470.11,2022-5-06T03:24:48Z
2022-05-06T01:26:11Z,42.805,6.029,13.2999,4.60033,2470.1,2022-5-06T03:27:51Z
2022-05-06T01:29:14Z,42.805,6.029,13.2998,4.60033,2470.11,2022-5-06T03:30:54Z
2022-05-06T01:32:17Z,42.805,6.029,13.2996,4.60033,2470.133,2022-5-06T03:33:58Z
2022-05-06T01:35:21Z,42.805,6.029,13.2999,4.60032,2470.087,2022-5-06T03:37:01Z
2022-05-06T01:38:24Z,42.805,6.029,13.3000,4.60033,2470.087,2022-5-06T03:40:04Z
2022-05-06T01:41:27Z,42.805,6.029,13.2998,4.60033,2470.11,2022-5-06T03:43:07Z
2022-05-06T01:44:30Z,42.805,6.029,13.2997,4.60034,2470.1,2022-5-06T03:46:10Z
2022-05-06T01:47:33Z,42.805,6.029,13.2998,4.60034,2470.063,2022-5-06T03:49:13Z
2022-05-06T01:50:36Z,42.805,6.029,13.2997,4.60033,2470.087,2022-5-06T03:52:16Z
2022-05-06T01:53:39Z,42.805,6.029,13.2994,4.60036,2470.04,2022-5-06T03:55:19Z
2022-05-06T01:56:42Z,42.805,6.029,13.2993,4.60034,2470.087,2022-5-06T03:58:23Z
2022-05-06T01:59:46Z,42.805,6.029,13.3000,4.60032,2470.1,2022-5-06T04:01:26Z
2022-05-06T02:02:49Z,42.805,6.029,13.2998,4.60033,2470.087,2022-5-06T04:04:29Z
2022-05-06T02:05:52Z,42.805,6.029,13.2998,4.60033,2470.087,2022-5-06T04:07:32Z
2022-05-06T02:08:55Z,42.805,6.029,13.2996,4.60032,2470.124,2022-5-06T04:10:35Z
2022-05-06T02:11:58Z,42.805,6.029,13.2997,4.60034,2470.063,2022-5-06T04:13:38Z
2022-05-06T02:15:01Z,42.805,6.029,13.2996,4.60033,2470.04,2022-5-06T04:16:41Z
2022-05-06T02:18:04Z,42.805,6.029,13.2996,4.60034,2470.077,2022-5-06T04:19:44Z
2022-05-06T02:21:07Z,42.805,6.029,13.2996,4.60033,2470.063,2022-5-06T04:22:47Z
2022-05-06T02:24:10Z,42.805,6.029,13.2998,4.60034,2470.04,2022-5-06T04:25:51Z
2022-05-06T02:27:14Z,42.805,6.029,13.2996,4.60033,2470.063,2022-5-06T04:28:54Z
2022-05-06T02:30:17Z,42.805,6.029,13.2993,4.60033,2470.04,2022-5-06T04:31:57Z
2022-05-06T02:33:20Z,42.805,6.029,13.2997,4.60033,2470.063,2022-5-06T04:35:00Z
2022-05-06T02:36:23Z,42.805,6.029,13.2997,4.60033,2470.017,2022-5-06T04:38:03Z
2022-05-06T02:39:26Z,42.805,6.029,13.2996,4.60032,2470.03,2022-5-06T04:41:06Z
2022-05-06T02:42:29Z,42.805,6.029,13.2998,4.60033,2470.053,2022-5-06T04:44:09Z
2022-05-06T02:45:32Z,42.805,6.029,13.2997,4.60033,2470.04,2022-5-06T04:47:12Z
2022-05-06T02:48:35Z,42.805,6.029,13.2998,4.60033,2470.063,2022-5-06T04:50:16Z
2022-05-06T02:51:39Z,42.805,6.029,13.2996,4.60034,2470.063,2022-5-06T04:53:19Z
2022-05-06T02:54:42Z,42.805,6.029,13.3000,4.60033,2470.063,2022-5-06T04:56:22Z
2022-05-06T02:57:45Z,42.805,6.029,13.2993,4.60032,2470.04,2022-5-06T04:59:25Z
2022-05-06T03:00:48Z,42.805,6.029,13.3000,4.60034,2470.053,2022-5-06T05:02:28Z
2022-05-06T03:03:51Z,42.805,6.029,13.2996,4.60033,2470.007,2022-5-06T05:05:31Z
2022-05-06T03:06:54Z,42.805,6.029,13.2998,4.60034,2469.993,2022-5-06T05:08:34Z
2022-05-06T03:09:57Z,42.805,6.029,13.2998,4.60033,2470.017,2022-5-06T05:11:37Z
2022-05-06T03:13:00Z,42.805,6.029,13.3000,4.60033,2470.04,2022-5-06T05:14:40Z
2022-05-06T03:16:03Z,42.805,6.029,13.2998,4.60033,2470.017,2022-5-06T05:17:44Z
2022-05-06T03:19:07Z,42.805,6.029,13.2998,4.60033,2469.947,2022-5-06T05:20:47Z
2022-05-06T03:22:10Z,42.805,6.029,13.2996,4.60033,2470.007,2022-5-06T05:23:50Z
2022-05-06T03:25:13Z,42.805,6.029,13.2998,4.60033,2470.017,2022-5-06T05:26:53Z
2022-05-06T03:28:16Z,42.805,6.029,13.2998,4.60033,2469.993,2022-5-06T05:29:56Z
2022-05-06T03:31:19Z,42.805,6.029,13.2998,4.60033,2469.984,2022-5-06T05:32:59Z
2022-05-06T03:34:22Z,42.805,6.029,13.2996,4.60032,2470.017,2022-5-06T05:36:02Z
2022-05-06T03:37:25Z,42.805,6.029,13.2996,4.60033,2470.003,2022-5-06T05:39:05Z
2022-05-06T03:40:28Z,42.805,6.029,13.2998,4.60033,2470.04,2022-5-06T05:42:09Z
2022-05-06T03:43:31Z,42.805,6.029,13.2996,4.60033,2470.017,2022-5-06T05:45:12Z
2022-05-06T03:46:35Z,42.805,6.029,13.2999,4.60033,2469.993,2022-5-06T05:48:15Z
2022-05-06T03:49:38Z,42.805,6.029,13.2993,4.60033,2470.007,2022-5-06T05:51:18Z
2022-05-06T03:52:41Z,42.805,6.029,13.3001,4.60032,2469.993,2022-5-06T05:54:21Z
2022-05-06T03:55:44Z,42.805,6.029,13.2997,4.60033,2470.053,2022-5-06T05:57:24Z
2022-05-06T03:58:47Z,42.805,6.029,13.3000,4.60033,2469.993,2022-5-06T06:00:27Z
2022-05-06T04:01:50Z,42.805,6.029,13.2998,4.60033,2469.993,2022-5-06T06:03:30Z
2022-05-06T04:04:53Z,42.805,6.029,13.2996,4.60033,2469.97,2022-5-06T06:06:33Z
2022-05-06T04:07:56Z,42.805,6.029,13.3000,4.60033,2469.97,2022-5-06T06:09:37Z
2022-05-06T04:11:00Z,42.805,6.029,13.2997,4.60033,2469.97,2022-5-06T06:12:40Z
2022-05-06T04:14:03Z,42.805,6.029,13.2994,4.60033,2469.97,2022-5-06T06:15:43Z
2022-05-06T04:17:06Z,42.805,6.029,13.2996,4.60033,2469.96,2022-5-06T06:18:46Z
2022-05-06T04:20:09Z,42.805,6.029,13.2999,4.60033,2470.007,2022-5-06T06:21:49Z
2022-05-06T04:23:12Z,42.805,6.029,13.2992,4.60033,2469.97,2022-5-06T06:24:52Z
2022-05-06T04:26:15Z,42.805,6.029,13.2999,4.60032,2469.984,2022-5-06T06:27:55Z
2022-05-06T04:29:18Z,42.805,6.029,13.2997,4.60032,2470.007,2022-5-06T06:30:58Z
2022-05-06T04:32:21Z,42.805,6.029,13.2996,4.60033,2469.97,2022-5-06T06:34:01Z
2022-05-06T04:35:24Z,42.805,6.029,13.2996,4.60032,2469.97,2022-5-06T06:37:05Z
2022-05-06T04:38:28Z,42.805,6.029,13.2996,4.60033,2469.984,2022-5-06T06:40:08Z
2022-05-06T04:41:31Z,42.805,6.029,13.2996,4.60031,2469.947,2022-5-06T06:43:11Z
2022-05-06T04:44:34Z,42.805,6.029,13.2998,4.60032,2469.947,2022-5-06T06:46:14Z
2022-05-06T04:47:37Z,42.805,6.029,13.3000,4.60032,2469.96,2022-5-06T06:49:17Z
2022-05-06T04:50:40Z,42.805,6.029,13.2998,4.60032,2469.97,2022-5-06T06:52:20Z
2022-05-06T04:53:43Z,42.805,6.029,13.3001,4.60032,2469.947,2022-5-06T06:55:23Z
2022-05-06T04:56:46Z,42.805,6.029,13.2993,4.60031,2469.97,2022-5-06T06:58:26Z
2022-05-06T04:59:49Z,42.805,6.029,13.2992,4.60032,2469.97,2022-5-06T07:01:30Z
2022-05-06T05:02:52Z,42.805,6.029,13.2996,4.60033,2469.97,2022-5-06T07:04:33Z
2022-05-06T05:05:56Z,42.805,6.029,13.2994,4.60032,2469.947,2022-5-06T07:07:36Z
2022-05-06T05:08:59Z,42.805,6.029,13.2998,4.60033,2469.984,2022-5-06T07:10:39Z
2022-05-06T05:12:02Z,42.805,6.029,13.2998,4.60033,2469.984,2022-5-06T07:13:42Z
2022-05-06T05:15:05Z,42.805,6.029,13.2996,4.60032,2469.96,2022-5-06T07:16:45Z
2022-05-06T05:18:08Z,42.805,6.029,13.2996,4.60032,2469.947,2022-5-06T07:19:48Z
2022-05-06T05:21:11Z,42.805,6.029,13.2999,4.60033,2469.993,2022-5-06T07:22:51Z
2022-05-06T05:24:14Z,42.805,6.029,13.2997,4.60033,2469.937,2022-5-06T07:25:54Z
2022-05-06T05:27:17Z,42.805,6.029,13.2998,4.60033,2469.96,2022-5-06T07:28:58Z
2022-05-06T05:30:20Z,42.805,6.029,13.2996,4.60032,2469.984,2022-5-06T07:32:01Z
2022-05-06T05:33:24Z,42.805,6.029,13.2997,4.60033,2469.923,2022-5-06T07:35:04Z
2022-05-06T05:36:27Z,42.805,6.029,13.2995,4.60032,2469.947,2022-5-06T07:38:07Z
2022-05-06T05:39:30Z,42.805,6.029,13.3000,4.60033,2469.947,2022-5-06T07:41:10Z
2022-05-06T05:42:33Z,42.805,6.029,13.2996,4.60033,2469.96,2022-5-06T07:44:13Z
2022-05-06T05:45:36Z,42.805,6.029,13.2994,4.60032,2469.947,2022-5-06T07:47:16Z
2022-05-06T05:48:39Z,42.805,6.029,13.2998,4.60031,2469.947,2022-5-06T07:50:19Z
2022-05-06T05:51:42Z,42.805,6.029,13.2998,4.60032,2469.947,2022-5-06T07:53:22Z
2022-05-06T05:54:45Z,42.805,6.029,13.3002,4.60032,2469.984,2022-5-06T07:56:26Z
2022-05-06T05:57:49Z,42.805,6.029,13.2997,4.60031,2469.984,2022-5-06T07:59:29Z
2022-05-06T06:00:52Z,42.805,6.029,13.2999,4.60032,2469.947,2022-5-06T08:02:32Z
2022-05-06T06:03:55Z,42.805,6.029,13.2996,4.60031,2469.923,2022-5-06T08:05:35Z
2022-05-06T06:06:58Z,42.805,6.029,13.2994,4.60032,2469.984,2022-5-06T08:08:38Z
2022-05-06T06:10:01Z,42.805,6.029,13.2998,4.60032,2469.97,2022-5-06T08:11:41Z
2022-05-06T06:13:04Z,42.805,6.029,13.2996,4.60032,2469.937,2022-5-06T08:14:44Z
2022-05-06T06:16:07Z,42.805,6.029,13.2996,4.60031,2469.96,2022-5-06T08:17:47Z
2022-05-06T06:19:10Z,42.805,6.029,13.2997,4.60033,2469.984,2022-5-06T08:20:51Z
2022-05-06T06:22:13Z,42.805,6.029,13.3000,4.60031,2469.97,2022-5-06T08:23:54Z
2022-05-06T06:25:17Z,42.805,6.029,13.2996,4.60031,2469.97,2022-5-06T08:26:57Z
2022-05-06T06:28:20Z,42.805,6.029,13.3000,4.60032,2469.96,2022-5-06T08:30:00Z
2022-05-06T06:31:23Z,42.805,6.029,13.3000,4.60032,2469.96,2022-5-06T08:33:03Z
2022-05-06T06:34:26Z,42.805,6.029,13.2996,4.60033,2469.9,2022-5-06T08:36:06Z
2022-05-06T06:37:29Z,42.805,6.029,13.2998,4.60032,2469.947,2022-5-06T08:39:09Z
2022-05-06T06:40:32Z,42.805,6.029,13.2999,4.60033,2469.947,2022-5-06T08:42:12Z
2022-05-06T06:43:35Z,42.805,6.029,13.2996,4.60031,2469.947,2022-5-06T08:45:15Z
2022-05-06T06:46:38Z,42.805,6.029,13.2996,4.60032,2469.947,2022-5-06T08:48:19Z
2022-05-06T06:49:42Z,42.805,6.029,13.2996,4.60033,2469.947,2022-5-06T08:51:22Z
2022-05-06T06:52:45Z,42.805,6.029,13.2994,4.60033,2469.923,2022-5-06T08:54:25Z
2022-05-06T06:55:48Z,42.805,6.029,13.3000,4.60032,2469.923,2022-5-06T08:57:28Z
2022-05-06T06:58:51Z,42.805,6.029,13.3000,4.60032,2469.923,2022-5-06T09:00:31Z
2022-05-06T07:01:54Z,42.805,6.029,13.2997,4.60033,2469.937,2022-5-06T09:03:34Z
2022-05-06T07:04:57Z,42.805,6.029,13.2998,4.60032,2469.937,2022-5-06T09:06:37Z
2022-05-06T07:08:00Z,42.805,6.029,13.2994,4.60033,2469.923,2022-5-06T09:09:40Z
2022-05-06T07:11:03Z,42.805,6.029,13.3001,4.60033,2469.96,2022-5-06T09:12:43Z
2022-05-06T07:14:06Z,42.805,6.029,13.2998,4.60031,2469.96,2022-5-06T09:15:47Z
2022-05-06T07:17:10Z,42.805,6.029,13.2995,4.60032,2469.96,2022-5-06T09:18:50Z
2022-05-06T07:20:13Z,42.805,6.029,13.2997,4.60032,2469.914,2022-5-06T09:21:53Z
2022-05-06T07:23:16Z,42.805,6.029,13.2996,4.60031,2469.947,2022-5-06T09:24:56Z
2022-05-06T07:26:19Z,42.805,6.029,13.2997,4.60033,2469.923,2022-5-06T09:27:59Z
2022-05-06T07:29:22Z,42.805,6.029,13.2995,4.60032,2469.947,2022-5-06T09:31:02Z
2022-05-06T07:32:25Z,42.805,6.029,13.2998,4.60033,2469.96,2022-5-06T09:34:05Z
2022-05-06T07:35:28Z,42.805,6.029,13.2997,4.60033,2469.947,2022-5-06T09:37:08Z
2022-05-06T07:38:31Z,42.805,6.029,13.3000,4.60031,2469.947,2022-5-06T09:40:12Z
2022-05-06T07:41:35Z,42.805,6.029,13.2993,4.60033,2469.947,2022-5-06T09:43:15Z
2022-05-06T07:44:38Z,42.805,6.029,13.3000,4.60033,2469.96,2022-5-06T09:46:18Z
2022-05-06T07:47:41Z,42.805,6.029,13.2998,4.60032,2469.947,2022-5-06T09:49:21Z
2022-05-06T07:50:44Z,42.805,6.029,13.2998,4.60032,2469.947,2022-5-06T09:52:24Z
2022-05-06T07:53:47Z,42.805,6.029,13.2996,4.60033,2469.97,2022-5-06T09:55:27Z
2022-05-06T07:56:50Z,42.805,6.029,13.2997,4.60033,2469.947,2022-5-06T09:58:30Z
2022-05-06T07:59:53Z,42.805,6.029,13.2996,4.60033,2469.97,2022-5-06T10:01:33Z
2022-05-06T08:02:56Z,42.805,6.029,13.2996,4.60031,2469.97,2022-5-06T10:04:36Z
2022-05-06T08:05:59Z,42.805,6.029,13.2996,4.60032,2469.97,2022-5-06T10:07:40Z
2022-05-06T08:09:03Z,42.805,6.029,13.3000,4.60033,2469.984,2022-5-06T10:10:43Z
2022-05-06T08:12:06Z,42.805,6.029,13.2994,4.60033,2469.979,2022-5-06T10:13:46Z
2022-05-06T08:15:09Z,42.805,6.029,13.2997,4.60032,2469.984,2022-5-06T10:16:49Z
2022-05-06T08:18:12Z,42.805,6.029,13.3001,4.60033,2469.947,2022-5-06T10:19:52Z
2022-05-06T08:21:15Z,42.805,6.029,13.2996,4.60033,2469.984,2022-5-06T10:22:55Z
2022-05-06T08:24:18Z,42.805,6.029,13.2995,4.60033,2470.007,2022-5-06T10:25:58Z
2022-05-06T08:27:21Z,42.805,6.029,13.2996,4.60033,2470.03,2022-5-06T10:29:01Z
2022-05-06T08:30:24Z,42.805,6.029,13.2996,4.60033,2469.993,2022-5-06T10:32:05Z
2022-05-06T08:33:28Z,42.805,6.029,13.2998,4.60033,2470.017,2022-5-06T10:35:08Z
2022-05-06T08:36:31Z,42.805,6.029,13.2997,4.60033,2469.993,2022-5-06T10:38:11Z
2022-05-06T08:39:34Z,42.805,6.029,13.2997,4.60033,2470.017,2022-5-06T10:41:14Z
2022-05-06T08:42:37Z,42.805,6.029,13.2995,4.60032,2470.007,2022-5-06T10:44:17Z
2022-05-06T08:45:40Z,42.805,6.029,13.2996,4.60032,2470.007,2022-5-06T10:47:20Z
2022-05-06T08:48:43Z,42.805,6.029,13.2996,4.60033,2469.993,2022-5-06T10:50:23Z
2022-05-06T08:51:46Z,42.805,6.029,13.2996,4.60032,2469.993,2022-5-06T10:53:26Z
2022-05-06T08:54:49Z,42.805,6.029,13.2999,4.60032,2470.007,2022-5-06T10:56:30Z
2022-05-06T08:57:53Z,42.805,6.029,13.2999,4.60031,2469.97,2022-5-06T10:59:33Z
2022-05-06T09:00:56Z,42.805,6.029,13.2996,4.60032,2469.993,2022-5-06T11:02:36Z
2022-05-06T09:03:59Z,42.805,6.029,13.2999,4.60033,2470.017,2022-5-06T11:05:39Z
2022-05-06T09:07:02Z,42.805,6.029,13.2998,4.60031,2470.017,2022-5-06T11:08:42Z
2022-05-06T09:10:05Z,42.805,6.029,13.2998,4.60033,2470.017,2022-5-06T11:11:45Z
2022-05-06T09:13:08Z,42.805,6.029,13.2998,4.60033,2470.017,2022-5-06T11:14:48Z
2022-05-06T09:16:11Z,42.805,6.029,13.2996,4.60033,2469.993,2022-5-06T11:17:51Z
2022-05-06T09:19:14Z,42.805,6.029,13.2998,4.60033,2470.017,2022-5-06T11:20:54Z
2022-05-06T09:22:17Z,42.805,6.029,13.2999,4.60033,2470.017,2022-5-06T11:23:58Z
2022-05-06T09:25:21Z,42.805,6.029,13.2998,4.60033,2470.053,2022-5-06T11:27:01Z
2022-05-06T09:28:24Z,42.805,6.029,13.2994,4.60032,2469.993,2022-5-06T11:30:04Z
2022-05-06T09:31:27Z,42.805,6.029,13.2996,4.60033,2469.993,2022-5-06T11:33:07Z
2022-05-06T09:34:30Z,42.805,6.029,13.2997,4.60031,2470.017,2022-5-06T11:36:10Z
2022-05-06T09:37:33Z,42.805,6.029,13.2995,4.60032,2469.993,2022-5-06T11:39:13Z
2022-05-06T09:40:36Z,42.805,6.029,13.2994,4.60033,2469.993,2022-5-06T11:42:16Z
2022-05-06T09:43:39Z,42.805,6.029,13.3000,4.60033,2470.017,2022-5-06T11:45:19Z
2022-05-06T09:46:42Z,42.805,6.029,13.2998,4.60033,2470.017,2022-5-06T11:48:23Z
2022-05-06T09:49:46Z,42.805,6.029,13.2996,4.60033,2469.993,2022-5-06T11:51:26Z
2022-05-06T09:52:49Z,42.805,6.029,13.2994,4.60033,2469.97,2022-5-06T11:54:29Z
2022-05-06T09:55:52Z,42.805,6.029,13.2999,4.60033,2470.007,2022-5-06T11:57:32Z
2022-05-06T09:58:55Z,42.805,6.029,13.2999,4.60034,2470.017,2022-5-06T12:00:35Z
2022-05-06T10:01:58Z,42.805,6.029,13.2998,4.60033,2470.007,2022-5-06T12:03:38Z
2022-05-06T10:05:01Z,42.805,6.029,13.2999,4.60033,2469.984,2022-5-06T12:06:41Z
2022-05-06T10:08:04Z,42.805,6.029,13.2998,4.60033,2469.993,2022-5-06T12:09:44Z
2022-05-06T10:11:07Z,42.805,6.029,13.2996,4.60033,2469.984,2022-5-06T12:12:48Z
2022-05-06T10:14:11Z,42.805,6.029,13.2998,4.60033,2470.017,2022-5-06T12:15:51Z
2022-05-06T10:17:14Z,42.805,6.029,13.2995,4.60033,2470.03,2022-5-06T12:18:54Z
2022-05-06T10:20:17Z,42.805,6.029,13.2998,4.60033,2469.993,2022-5-06T12:21:57Z
2022-05-06T10:23:20Z,42.805,6.029,13.2997,4.60034,2469.993,2022-5-06T12:25:00Z
2022-05-06T10:26:23Z,42.805,6.029,13.2998,4.60032,2469.984,2022-5-06T12:28:03Z
2022-05-06T10:29:26Z,42.805,6.029,13.2998,4.60033,2470.03,2022-5-06T12:31:06Z
2022-05-06T10:32:29Z,42.805,6.029,13.2999,4.60034,2469.993,2022-5-06T12:34:09Z
2022-05-06T10:35:32Z,42.805,6.029,13.2997,4.60035,2469.984,2022-5-06T12:37:13Z
2022-05-06T10:38:35Z,42.805,6.029,13.2996,4.60035,2470.017,2022-5-06T12:40:16Z
2022-05-06T10:41:39Z,42.805,6.029,13.2998,4.60034,2470.03,2022-5-06T12:43:19Z
2022-05-06T10:44:42Z,42.805,6.029,13.2991,4.60034,2469.993,2022-5-06T12:46:22Z
2022-05-06T10:47:45Z,42.805,6.029,13.2996,4.60033,2469.993,2022-5-06T12:49:25Z
2022-05-06T10:50:48Z,42.805,6.029,13.3000,4.60033,2469.993,2022-5-06T12:52:28Z
2022-05-06T10:53:51Z,42.805,6.029,13.2998,4.60033,2469.993,2022-5-06T12:55:31Z
2022-05-06T10:56:54Z,42.805,6.029,13.2999,4.60033,2470.04,2022-5-06T12:58:34Z
2022-05-06T10:59:57Z,42.805,6.029,13.2994,4.60032,2469.97,2022-5-06T13:01:38Z
2022-05-06T11:03:00Z,42.805,6.029,13.2998,4.60032,2469.96,2022-5-06T13:04:41Z
2022-05-06T11:06:04Z,42.805,6.029,13.2996,4.60032,2469.984,2022-5-06T13:07:44Z
2022-05-06T11:09:07Z,42.805,6.029,13.2996,4.60033,2470.007,2022-5-06T13:10:47Z
2022-05-06T11:12:10Z,42.805,6.029,13.2998,4.60035,2469.96,2022-5-06T13:13:50Z
2022-05-06T11:15:13Z,42.805,6.029,13.2998,4.60033,2469.947,2022-5-06T13:16:53Z
2022-05-06T11:18:16Z,42.805,6.029,13.2996,4.60033,2469.97,2022-5-06T13:19:56Z
2022-05-06T11:21:19Z,42.805,6.029,13.2996,4.60032,2469.956,2022-5-06T13:22:59Z
2022-05-06T11:24:22Z,42.805,6.029,13.2997,4.60032,2469.984,2022-5-06T13:26:02Z
2022-05-06T11:27:25Z,42.805,6.029,13.3003,4.60033,2469.984,2022-5-06T13:29:06Z
2022-05-06T11:30:29Z,42.805,6.029,13.2998,4.60032,2469.984,2022-5-06T13:32:09Z
2022-05-06T11:33:32Z,42.805,6.029,13.2996,4.60032,2469.97,2022-5-06T13:35:12Z
2022-05-06T11:36:35Z,42.805,6.029,13.2999,4.60032,2469.97,2022-5-06T13:38:15Z
2022-05-06T11:39:38Z,42.805,6.029,13.2996,4.60031,2469.97,2022-5-06T13:41:18Z
2022-05-06T11:42:41Z,42.805,6.029,13.2996,4.60033,2469.947,2022-5-06T13:44:21Z
2022-05-06T11:45:44Z,42.805,6.029,13.2996,4.60031,2469.97,2022-5-06T13:47:24Z
2022-05-06T11:48:47Z,42.805,6.029,13.2996,4.60032,2469.96,2022-5-06T13:50:27Z
2022-05-06T11:51:50Z,42.805,6.029,13.2999,4.60033,2469.947,2022-5-06T13:53:31Z
2022-05-06T11:54:54Z,42.805,6.029,13.2998,4.60034,2469.97,2022-5-06T13:56:34Z
2022-05-06T11:57:57Z,42.805,6.029,13.2996,4.60031,2469.96,2022-5-06T13:59:37Z
2022-05-06T12:01:00Z,42.805,6.029,13.2992,4.60033,2469.923,2022-5-06T14:02:40Z
2022-05-06T12:04:03Z,42.805,6.029,13.2996,4.60031,2469.886,2022-5-06T14:05:43Z
2022-05-06T12:07:06Z,42.805,6.029,13.2996,4.60032,2469.947,2022-5-06T14:08:46Z
2022-05-06T12:10:09Z,42.805,6.029,13.2997,4.60033,2469.947,2022-5-06T14:11:49Z
2022-05-06T12:13:12Z,42.805,6.029,13.2996,4.60034,2469.947,2022-5-06T14:14:52Z
2022-05-06T12:16:15Z,42.805,6.029,13.2999,4.60033,2469.923,2022-5-06T14:17:56Z
2022-05-06T12:19:18Z,42.805,6.029,13.2993,4.60032,2469.923,2022-5-06T14:20:59Z
2022-05-06T12:22:22Z,42.805,6.029,13.2997,4.60033,2469.9,2022-5-06T14:24:02Z
2022-05-06T12:25:25Z,42.805,6.029,13.2998,4.60032,2469.923,2022-5-06T14:27:05Z
2022-05-06T12:28:28Z,42.805,6.029,13.2998,4.60031,2469.9,2022-5-06T14:30:08Z
2022-05-06T12:31:31Z,42.805,6.029,13.2996,4.60032,2469.923,2022-5-06T14:33:11Z
2022-05-06T12:34:34Z,42.805,6.029,13.2996,4.60031,2469.923,2022-5-06T14:36:14Z
2022-05-06T12:37:37Z,42.805,6.029,13.2996,4.60031,2469.96,2022-5-06T14:39:17Z
2022-05-06T12:40:40Z,42.805,6.029,13.2999,4.60031,2469.96,2022-5-06T14:42:21Z
2022-05-06T12:43:43Z,42.805,6.029,13.2992,4.60033,2469.97,2022-5-06T14:45:24Z
2022-05-06T12:46:47Z,42.805,6.029,13.2996,4.60032,2469.97,2022-5-06T14:48:27Z
2022-05-06T12:49:50Z,42.805,6.029,13.2996,4.60034,2469.923,2022-5-06T14:51:30Z
2022-05-06T12:52:53Z,42.805,6.029,13.2996,4.60032,2469.96,2022-5-06T14:54:33Z
2022-05-06T12:55:56Z,42.805,6.029,13.2999,4.60032,2469.947,2022-5-06T14:57:36Z
2022-05-06T12:58:59Z,42.805,6.029,13.2999,4.60032,2469.937,2022-5-06T15:00:39Z
2022-05-06T13:02:02Z,42.805,6.029,13.2999,4.60031,2469.937,2022-5-06T15:03:42Z
2022-05-06T13:05:05Z,42.805,6.029,13.2998,4.60031,2469.923,2022-5-06T15:06:45Z
2022-05-06T13:08:08Z,42.805,6.029,13.3000,4.60032,2469.923,2022-5-06T15:09:49Z
2022-05-06T13:11:12Z,42.805,6.029,13.2993,4.60031,2469.886,2022-5-06T15:12:52Z
2022-05-06T13:14:15Z,42.805,6.029,13.2996,4.60033,2469.9,2022-5-06T15:15:55Z
2022-05-06T13:17:18Z,42.805,6.029,13.2997,4.60031,2470.007,2022-5-06T15:18:58Z
2022-05-06T13:20:21Z,42.805,6.029,13.2998,4.60031,2469.97,2022-5-06T15:22:01Z
2022-05-06T13:23:24Z,42.805,6.029,13.2996,4.60032,2469.947,2022-5-06T15:25:04Z
2022-05-06T13:26:27Z,42.805,6.029,13.2998,4.60032,2469.923,2022-5-06T15:28:07Z
2022-05-06T13:29:30Z,42.805,6.029,13.2996,4.60034,2469.909,2022-5-06T15:31:10Z
2022-05-06T13:32:33Z,42.805,6.029,13.2996,4.60033,2469.96,2022-5-06T15:34:14Z
2022-05-06T13:35:36Z,42.805,6.029,13.2997,4.60031,2469.947,2022-5-06T15:37:17Z
2022-05-06T13:38:40Z,42.805,6.029,13.2996,4.60031,2469.97,2022-5-06T15:40:20Z
2022-05-06T13:41:43Z,42.805,6.029,13.2996,4.60032,2469.947,2022-5-06T15:43:23Z
2022-05-06T13:44:46Z,42.805,6.029,13.2998,4.60032,2469.923,2022-5-06T15:46:26Z
2022-05-06T13:47:49Z,42.805,6.029,13.2993,4.60032,2469.984,2022-5-06T15:49:29Z
2022-05-06T13:50:52Z,42.805,6.029,13.2995,4.60032,2469.923,2022-5-06T15:52:32Z
2022-05-06T13:53:55Z,42.805,6.029,13.2998,4.60033,2469.937,2022-5-06T15:55:35Z
2022-05-06T13:56:58Z,42.805,6.029,13.2996,4.60032,2469.96,2022-5-06T15:58:39Z
2022-05-06T14:00:01Z,42.805,6.029,13.2994,4.60033,2469.923,2022-5-06T16:01:42Z
2022-05-06T14:03:05Z,42.805,6.029,13.2996,4.60033,2469.923,2022-5-06T16:04:45Z
2022-05-06T14:06:08Z,42.805,6.029,13.2998,4.60033,2469.96,2022-5-06T16:07:48Z
2022-05-06T14:09:11Z,42.805,6.029,13.2993,4.60033,2469.96,2022-5-06T16:10:51Z
2022-05-06T14:12:14Z,42.805,6.029,13.2996,4.60033,2469.923,2022-5-06T16:13:54Z
2022-05-06T14:15:17Z,42.805,6.029,13.2996,4.60032,2469.923,2022-5-06T16:16:57Z
2022-05-06T14:18:20Z,42.805,6.029,13.2997,4.60032,2469.923,2022-5-06T16:20:00Z
2022-05-06T14:21:23Z,42.805,6.029,13.3000,4.60033,2469.914,2022-5-06T16:23:03Z
2022-05-06T14:24:26Z,42.805,6.029,13.2998,4.60032,2469.923,2022-5-06T16:26:07Z
2022-05-06T14:27:30Z,42.805,6.029,13.2997,4.60033,2469.909,2022-5-06T16:29:10Z
2022-05-06T14:30:33Z,42.805,6.029,13.2997,4.60031,2469.914,2022-5-06T16:32:13Z
2022-05-06T14:33:36Z,42.805,6.029,13.2992,4.60031,2469.876,2022-5-06T16:35:16Z
2022-05-06T14:36:39Z,42.805,6.029,13.2998,4.60031,2469.9,2022-5-06T16:38:19Z
2022-05-06T14:39:42Z,42.805,6.029,13.3000,4.60032,2469.876,2022-5-06T16:41:22Z
2022-05-06T14:42:45Z,42.805,6.029,13.2999,4.60032,2469.853,2022-5-06T16:44:25Z
2022-05-06T14:45:48Z,42.805,6.029,13.2996,4.60032,2469.914,2022-5-06T16:47:29Z
2022-05-06T14:48:51Z,42.805,6.029,13.2998,4.60032,2469.914,2022-5-06T16:50:32Z
2022-05-06T14:51:55Z,42.805,6.029,13.3000,4.60032,2469.9,2022-5-06T16:53:35Z
2022-05-06T14:54:58Z,42.805,6.029,13.2999,4.60033,2469.9,2022-5-06T16:56:38Z
2022-05-06T14:58:01Z,42.805,6.029,13.3000,4.60032,2469.89,2022-5-06T16:59:41Z
2022-05-06T15:01:04Z,42.805,6.029,13.2999,4.60031,2469.876,2022-5-06T17:02:44Z
2022-05-06T15:04:07Z,42.805,6.029,13.2996,4.60032,2469.914,2022-5-06T17:05:47Z
2022-05-06T15:07:10Z,42.805,6.029,13.2999,4.60032,2469.876,2022-5-06T17:08:50Z
2022-05-06T15:10:13Z,42.805,6.029,13.2996,4.60032,2469.867,2022-5-06T17:11:53Z
2022-05-06T15:13:16Z,42.805,6.029,13.2997,4.60031,2469.876,2022-5-06T17:14:57Z